Regional Weather Roundup
Issued by NWS

Home | Current Version | Previous Version | Graphics & Text | Print | Product List | Glossary On
Versions: 1 2 3 4 5 6 7 8 9 10 11 12 13 14 15 16 17 18 19 20 21 22 23 24 25 26 27 28 29 30 31 32 33 34 35 36 37 38 39 40 41 42 43 44 45 46 47 48 49 50
000
ASUS43 KLSX 260907
RWRMO

WEATHER SUMMARY FOR MISSOURI
NATIONAL WEATHER SERVICE SPRINGFIELD MO
400 AM CDT WED JUL 26 2017

NOTE: "FAIR" INDICATES FEW OR NO CLOUDS BELOW 12,000 FEET WITH NO
       SIGNIFICANT WEATHER AND/OR OBSTRUCTIONS TO VISIBILITY.
       CURRENT SKY AND/OR WEATHER CONDITIONS ARE NOT AVAILABLE FOR
       CHILLICOTHE AND FARMINGTON.

MOZ001>031-035>038-043-044-053-054-261000-
...NORTHERN AND WESTERN MISSOURI...

CITY           SKY/WX    TMP DP  RH WIND       PRES   REMARKS
KANSAS CTY INT MOCLDY    79  73  82 S10       29.99F
KANSAS C DTWN  PTCLDY    81  74  79 S7        29.98F
LEE`S SUMMIT   CLOUDY    80  74  81 S10       30.01F
ST JOSEPH      MOCLDY    79  76  90 SE7       29.97F
CHILLICOTHE      N/A     75  71  87 SE5       30.02F
KIRKSVILLE     CLEAR     72  70  93 SE7       30.04F

$$
MOZ066>068-077>081-088>096-101>105-261000-
...SOUTHWEST MISSOURI...

CITY           SKY/WX    TMP DP  RH WIND       PRES   REMARKS
SPRINGFIELD    CLEAR     76  72  87 S7        30.08S
JOPLIN         PTCLDY    79  74  84 S10       30.05F
BRANSON          N/A     75  72  88 CALM      30.11F

$$
MOZ032>034-039>042-045>050-055>058-069>072-261000-
...CENTRAL MISSOURI...

CITY           SKY/WX    TMP DP  RH WIND       PRES   REMARKS
COLUMBIA       PTCLDY    74  72  93 E7        30.04F
JEFFERSON CITY MOCLDY    73  72  96 E5        30.03F
ROLLA          PTCLDY    73  69  87 S8        30.08R
SEDALIA        CLOUDY    75  71  87 S6        30.04F
WHITEMAN AFB   PTCLDY    75  75 100 S5        30.02F
OSAGE BEACH    PTCLDY    73  69  87 CALM      30.06S

$$
MOZ051-052-059>065-261000-
...EAST CENTRAL MISSOURI...

CITY           SKY/WX    TMP DP  RH WIND       PRES   REMARKS
ST LOUIS INTL  PTCLDY    79  70  74 SE10      30.06F
SPIRIT OF STL  CLEAR     77  73  87 E5        30.04F
ST CHARLES     CLOUDY    74  71  91 E7        30.04F

$$
MOZ072>076-082>087-097>100-106>115-261000-
...SOUTH CENTRAL AND SOUTHEAST MISSOURI...

CITY           SKY/WX    TMP DP  RH WIND       PRES   REMARKS
CAPE GIRARDEAU CLEAR     75  73  93 SE3       30.07R
FARMINGTON     PTCLDY    76  74  93 S3        30.09F
POPLAR BLUFF   CLEAR     75  74  96 CALM      30.07R
WEST PLAINS    CLEAR     76  72  87 SW5       30.11S

$$




USA.gov is the U.S. government's official web portal to all federal, state and local government web resources and services.